Flag for USA

Past Weather in Fairbanks, Alaska, USA — Yesterday and Last 2 Weeks

Now
60 °F

Overcast.


Feels Like: 59 °F
Forecast: 67 / 42 °F
Wind: 7 mph from Southwest

Location: Wainwright U. S. Army Airfield

Current Time: Jul 2, 2020 at 2:57:14 pm

Latest Report: Jul 2, 2020 at 1:58 pm


Visibility: 10 mi

Pressure: 30.17 "Hg

Humidity: 53%

Dew Point: 43 °F

Location of FairbanksLocation

Past Weather in Fairbanks — Graph

°F

Fairbanks Temperature Yesterday

Maximum temperature yesterday: 63 °F (at 4:58 pm)
Minimum temperature yesterday: 39 °F (at 4:58 am)
Average temperature yesterday: 54 °F

High & Low Weather Summary for the Past Weeks

 TemperatureHumidityPressure
High77 °F (Jun 17, 4:58 pm)100% (Jun 19, 2:33 am)30.37 "Hg (Jun 19, 2:33 am)
Low39 °F (Jul 1, 4:58 am)25% (Jun 17, 5:58 pm)29.56 "Hg (Jun 20, 1:58 pm)
Average56 °F77%29.81 "Hg
* Reported Jun 17 12:58 pm — Jul 2 12:58 pm, Fairbanks. Weather by CustomWeather, © 2020

Note: Actual official high and low records may vary slightly from our data, if they occured in-between our weather recording intervals... More about our weather records

Fairbanks Weather History for the Previous 24 Hours

Scroll right to see more
 ConditionsComfort  
Time TempWeatherWind HumidityBarometerVisibility
12:58 pm
Thu, Jul 2
59 °FOvercast.5 mph57%30.18 "Hg10 mi
11:58 am57 °FOvercast.5 mph63%30.19 "Hg10 mi
10:58 am56 °FOvercast.No wind62%30.20 "Hg9 mi
9:58 am55 °FOvercast.No wind64%30.21 "Hg10 mi
8:58 am54 °FOvercast.3 mph65%30.23 "Hg10 mi
7:58 am52 °FOvercast.3 mph70%30.24 "Hg10 mi
6:58 am48 °FSunny.5 mph80%30.25 "Hg10 mi
5:58 am44 °FSunny.No wind89%30.26 "Hg10 mi
4:58 am43 °FSunny.No wind91%30.26 "Hg10 mi
3:58 am43 °FSunny.No wind95%30.27 "Hg10 mi
2:58 am45 °FClear.No wind90%30.28 "Hg10 mi
1:58 am45 °FClear.No wind92%30.27 "Hg10 mi
12:58 am49 °FSunny.No wind91%30.27 "Hg10 mi
11:58 pm
Wed, Jul 1
55 °FSunny.No wind77%30.27 "Hg10 mi
10:58 pm59 °FSunny.No wind57%30.27 "Hg10 mi
9:58 pm61 °FOvercast.No wind50%30.27 "Hg9 mi
8:58 pm62 °FOvercast.No wind44%30.27 "Hg9 mi
7:58 pm62 °FMostly cloudy.3 mph41%30.28 "Hg9 mi
6:58 pm62 °FMostly cloudy.7 mph39%30.29 "Hg10 mi
5:58 pm63 °FOvercast.3 mph37%30.29 "Hg9 mi
4:58 pm63 °FOvercast.5 mph39%30.30 "Hg10 mi
3:58 pm62 °FOvercast.7 mph39%30.30 "Hg10 mi
2:58 pm63 °FSunny.No wind37%30.30 "Hg10 mi
Weather by CustomWeather, © 2020

See weather overview